When you browse on this site, cookies collect data to enhance your experience and personalize the content and advertising you see.
Visit our Privacy Policy to learn more. By continuing to use the site, you agree to this use of cookies and data.
  • în România
  • Lista ţărilor
  • Pe 7 zile
  • Temperatura apei
  • Hartă satelitară
  • Meteo pe hartă
  • Widget-uri
  • user-avatar
    Intrare

    Meteo pe oră la Panschina

    Astăzi, 20 Martie, Miercuri

    Timp Temperatura Precipitaţii Vânt Presiune Umiditate
    00:00 -1°C° 0 mm 2 m/s 747 mmHg 88%
    01:00 -1°C° 0 mm 2 m/s 747 mmHg 90%
    02:00 -2°C° 0 mm 2 m/s 747 mmHg 93%
    03:00 -2°C° 0 mm 2 m/s 747 mmHg 94%
    04:00 -2°C° 0 mm 2 m/s 748 mmHg 94%
    05:00 -2°C° 0 mm 2 m/s 748 mmHg 95%
    06:00 -1°C° 0 mm 3 m/s 748 mmHg 91%
    07:00 -1°C° 0 mm 3 m/s 749 mmHg 88%
    08:00 0°C° 0 mm 3 m/s 749 mmHg 83%
    09:00 0°C° 0 mm 3 m/s 749 mmHg 79%
    10:00 +1°C° 0 mm 3 m/s 749 mmHg 75%
    11:00 +1°C° 0 mm 3 m/s 749 mmHg 71%
    12:00 +1°C° 0 mm 3 m/s 750 mmHg 70%
    13:00 +1°C° 0 mm 3 m/s 750 mmHg 68%
    14:00 +1°C° 0 mm 3 m/s 750 mmHg 67%
    15:00 +1°C° 0 mm 3 m/s 750 mmHg 68%
    16:00 +1°C° 0 mm 3 m/s 750 mmHg 70%
    17:00 0°C° 0 mm 3 m/s 750 mmHg 71%
    18:00 +1°C° 0 mm 2 m/s 750 mmHg 73%
    19:00 +1°C° 0 mm 2 m/s 749 mmHg 76%
    20:00 -1°C° 0 mm 2 m/s 749 mmHg 78%
    21:00 -1°C° 0 mm 2 m/s 749 mmHg 78%
    22:00 -1°C° 0 mm 3 m/s 748 mmHg 78%
    23:00 -1°C° 0 mm 3 m/s 748 mmHg 78%

    Mâine, 21 Martie, Joi

    Timp Temperatura Precipitaţii Vânt Presiune Umiditate
    00:00 0°C° 0.3 mm 3 m/s 747 mmHg 79%
    01:00 -1°C° 0.3 mm 4 m/s 746 mmHg 81%
    02:00 -1°C° 0.3 mm 4 m/s 746 mmHg 82%
    03:00 -1°C° 0.7 mm 4 m/s 746 mmHg 85%
    04:00 -1°C° 0.7 mm 4 m/s 745 mmHg 87%
    05:00 +1°C° 0.7 mm 3 m/s 745 mmHg 89%
    06:00 0°C° 0 mm 4 m/s 745 mmHg 88%
    07:00 0°C° 0 mm 4 m/s 746 mmHg 86%
    08:00 0°C° 0 mm 4 m/s 746 mmHg 84%
    09:00 +1°C° 0 mm 4 m/s 746 mmHg 82%
    10:00 +1°C° 0 mm 4 m/s 747 mmHg 80%
    11:00 +1°C° 0 mm 4 m/s 747 mmHg 78%
    12:00 +3°C° 0 mm 4 m/s 747 mmHg 75%
    13:00 +4°C° 0 mm 3 m/s 748 mmHg 72%
    14:00 +5°C° 0 mm 3 m/s 748 mmHg 69%
    15:00 +5°C° 0 mm 3 m/s 748 mmHg 71%
    16:00 +6°C° 0 mm 2 m/s 748 mmHg 73%
    17:00 +5°C° 0 mm 2 m/s 748 mmHg 74%
    18:00 +4°C° 0 mm 2 m/s 748 mmHg 78%
    19:00 +3°C° 0 mm 2 m/s 748 mmHg 82%
    20:00 +2°C° 0 mm 2 m/s 748 mmHg 86%
    21:00 +2°C° 0 mm 2 m/s 747 mmHg 87%
    22:00 +2°C° 0 mm 2 m/s 747 mmHg 88%
    23:00 +2°C° 0 mm 2 m/s 746 mmHg 89%

    Poimâine, 22 Martie, Vineri

    Timp Temperatura Precipitaţii Vânt Presiune Umiditate
    00:00 +2°C° 0.1 mm 2 m/s 746 mmHg 91%
    01:00 +3°C° 0.1 mm 2 m/s 746 mmHg 93%
    02:00 +3°C° 0.1 mm 2 m/s 745 mmHg 94%
    03:00 +2°C° 0.5 mm 3 m/s 745 mmHg 95%
    04:00 +2°C° 0.5 mm 3 m/s 744 mmHg 95%
    05:00 +3°C° 0.5 mm 3 m/s 743 mmHg 96%
    06:00 +3°C° 0.3 mm 3 m/s 744 mmHg 95%
    07:00 +4°C° 0.3 mm 4 m/s 744 mmHg 93%
    08:00 +5°C° 0.3 mm 4 m/s 744 mmHg 92%
    09:00 +5°C° 0 mm 4 m/s 745 mmHg 83%
    10:00 +5°C° 0 mm 5 m/s 745 mmHg 75%
    11:00 +6°C° 0 mm 5 m/s 745 mmHg 66%
    12:00 +6°C° 0 mm 5 m/s 745 mmHg 61%
    13:00 +6°C° 0 mm 5 m/s 746 mmHg 55%
    14:00 +7°C° 0 mm 5 m/s 746 mmHg 49%
    15:00 +6°C° 0 mm 5 m/s 746 mmHg 51%
    16:00 +5°C° 0 mm 4 m/s 746 mmHg 52%
    17:00 +5°C° 0 mm 4 m/s 746 mmHg 53%
    18:00 +3°C° 0 mm 3 m/s 746 mmHg 58%
    19:00 +2°C° 0 mm 3 m/s 747 mmHg 63%
    20:00 +1°C° 0 mm 3 m/s 747 mmHg 68%
    21:00 0°C° 0 mm 3 m/s 747 mmHg 71%
    22:00 -1°C° 0 mm 2 m/s 747 mmHg 75%
    23:00 -1°C° 0 mm 2 m/s 748 mmHg 78%

    23 Martie, Sâmbătă

    Timp Temperatura Precipitaţii Vânt Presiune Umiditate
    00:00 -2°C° 0 mm 2 m/s 748 mmHg 81%
    01:00 -2°C° 0 mm 2 m/s 748 mmHg 83%
    02:00 0°C° 0 mm 1 m/s 748 mmHg 86%
    03:00 -1°C° 0 mm 1 m/s 748 mmHg 86%
    04:00 -1°C° 0 mm 1 m/s 748 mmHg 87%
    05:00 -1°C° 0 mm 1 m/s 747 mmHg 87%
    06:00 0°C° 0 mm 1 m/s 747 mmHg 82%
    07:00 +1°C° 0 mm 1 m/s 747 mmHg 77%
    08:00 +2°C° 0 mm 1 m/s 747 mmHg 72%
    09:00 +3°C° 0 mm 2 m/s 746 mmHg 67%
    10:00 +3°C° 0 mm 3 m/s 745 mmHg 62%
    11:00 +4°C° 0 mm 3 m/s 744 mmHg 57%
    12:00 +5°C° 0 mm 4 m/s 743 mmHg 66%
    13:00 +5°C° 0 mm 4 m/s 742 mmHg 75%
    14:00 +5°C° 0 mm 4 m/s 742 mmHg 85%
    15:00 +5°C° 0.3 mm 4 m/s 741 mmHg 87%
    16:00 +5°C° 0.3 mm 5 m/s 740 mmHg 89%
    17:00 +6°C° 0.3 mm 5 m/s 740 mmHg 91%
    18:00 +5°C° 0.1 mm 5 m/s 740 mmHg 85%
    19:00 +3°C° 0.1 mm 5 m/s 740 mmHg 78%
    20:00 +2°C° 0.1 mm 5 m/s 741 mmHg 71%
    21:00 +1°C° 0 mm 5 m/s 741 mmHg 71%
    22:00 0°C° 0 mm 4 m/s 741 mmHg 70%
    23:00 -1°C° 0 mm 4 m/s 741 mmHg 70%

    24 Martie, Duminică

    Timp Temperatura Precipitaţii Vânt Presiune Umiditate
    00:00 -1°C° 0 mm 4 m/s 741 mmHg 71%
    01:00 -2°C° 0 mm 4 m/s 741 mmHg 72%
    02:00 -2°C° 0 mm 4 m/s 741 mmHg 72%
    03:00 -2°C° 0 mm 4 m/s 741 mmHg 73%
    04:00 -2°C° 0 mm 4 m/s 741 mmHg 73%
    05:00 -2°C° 0 mm 4 m/s 741 mmHg 74%
    06:00 -2°C° 0 mm 5 m/s 741 mmHg 70%
    07:00 -2°C° 0 mm 6 m/s 741 mmHg 66%
    08:00 -1°C° 0 mm 7 m/s 741 mmHg 62%
    09:00 -1°C° 0 mm 7 m/s 741 mmHg 59%
    10:00 -1°C° 0 mm 7 m/s 741 mmHg 56%
    11:00 -1°C° 0 mm 7 m/s 741 mmHg 54%
    12:00 0°C° 0 mm 7 m/s 742 mmHg 53%
    13:00 0°C° 0 mm 7 m/s 742 mmHg 52%
    14:00 +2°C° 0 mm 7 m/s 742 mmHg 51%
    15:00 +1°C° 0 mm 6 m/s 742 mmHg 48%
    16:00 +1°C° 0 mm 5 m/s 742 mmHg 45%
    17:00 +1°C° 0 mm 5 m/s 742 mmHg 42%
    18:00 0°C° 0 mm 4 m/s 743 mmHg 46%
    19:00 -1°C° 0 mm 4 m/s 743 mmHg 50%
    20:00 -2°C° 0 mm 4 m/s 743 mmHg 53%
    21:00 -1°C° 0 mm 3 m/s 743 mmHg 58%
    22:00 -2°C° 0 mm 3 m/s 743 mmHg 62%
    23:00 -2°C° 0 mm 3 m/s 743 mmHg 67%

    25 Martie, Luni

    Timp Temperatura Precipitaţii Vânt Presiune Umiditate
    00:00 -2°C° 0 mm 2 m/s 743 mmHg 70%
    01:00 -3°C° 0 mm 2 m/s 743 mmHg 73%
    02:00 -3°C° 0 mm 2 m/s 743 mmHg 76%
    03:00 -3°C° 0 mm 2 m/s 742 mmHg 74%
    04:00 -3°C° 0 mm 2 m/s 742 mmHg 73%
    05:00 -3°C° 0 mm 2 m/s 741 mmHg 71%
    06:00 -2°C° 0 mm 3 m/s 740 mmHg 68%
    07:00 -1°C° 0 mm 3 m/s 740 mmHg 64%
    08:00 -1°C° 0 mm 4 m/s 739 mmHg 61%
    09:00 0°C° 0 mm 4 m/s 738 mmHg 56%
    10:00 +1°C° 0 mm 5 m/s 737 mmHg 50%
    11:00 +2°C° 0 mm 5 m/s 736 mmHg 45%
    12:00 +3°C° 0 mm 5 m/s 735 mmHg 46%
    13:00 +3°C° 0 mm 5 m/s 735 mmHg 47%
    14:00 +3°C° 0 mm 6 m/s 734 mmHg 47%
    15:00 +3°C° 0.1 mm 5 m/s 733 mmHg 52%
    16:00 +2°C° 0.1 mm 5 m/s 732 mmHg 57%
    17:00 +3°C° 0.1 mm 4 m/s 731 mmHg 62%
    18:00 +1°C° 0.6 mm 4 m/s 731 mmHg 67%
    19:00 +2°C° 0.6 mm 3 m/s 730 mmHg 72%
    20:00 +1°C° 0.6 mm 3 m/s 730 mmHg 77%
    21:00 +1°C° 0.6 mm 3 m/s 729 mmHg 80%
    22:00 0°C° 0.6 mm 3 m/s 729 mmHg 84%
    23:00 0°C° 0.6 mm 3 m/s 729 mmHg 87%
    Arată mai mult